Weather Roundup
Issued by NWS Chicago, IL

Home | Current Version | Previous Version | Text Only | Print | Product List | Glossary Off
Versions: 1 2 3 4 5 6 7 8 9 10 11 12 13 14 15 16 17 18 19 20 21 22 23 24 25 26 27 28 29 30 31 32 33 34 35 36 37 38 39 40 41 42 43 44 45 46 47 48 49 50

000
NZUS59 KLOT 280206
HRRLOT

CHICAGO AREA WEATHER ROUNDUP
NATIONAL WEATHER SERVICE CHICAGO/ROMEOVILLE IL
900 PM CDT SUN JUL 27 2014

NOTE: "FAIR" INDICATES FEW OR NO CLOUDS BELOW 12,000 FEET WITH NO
SIGNIFICANT WEATHER AND/OR OBSTRUCTIONS TO VISIBILITY.

* THESE STATIONS ARE NOT UNDER NWS QUALITY CONTROL. THEY ALSO MAY NOT
  REPORT WEATHER SUCH AS PRECIPITATION OR FOG.

ILZ005-006-012>014-019>023-280300-
NORTHEAST ILLINOIS

CITY           SKY/WX    TMP DP  RH WIND       PRES   REMARKS
OHARE          LGT RAIN  72  56  57 NW14      29.84R
MIDWAY         MOCLDY    74  57  55 NW15G23   29.83R
AURORA         MOCLDY    69  57  65 NW7       29.86R
LANSING*       CLEAR     72  54  53 NW10G17   29.83R
JOLIET*        PTCLDY    71  55  58 NW6       29.86R
WAUKEGAN       MOCLDY    63  60  90 N12       29.85R
DUPAGE AIRPORT CLOUDY    70  58  65 NW10      29.85R
WHEELING       CLOUDY    68  62  81 N8        29.85R
KANKAKEE*      CLOUDY    72  58  61 W9        29.86R
MORRIS*        PTCLDY    70  60  70 NW7       29.86R
LEWIS AIRPORT* CLEAR     70  55  59 NW12G17   29.85R
NORTHERLY IS     N/A     73  56  54 W20         N/A
$$

WIZ051-052-058>065-066-070>072-280300-
SOUTHEAST WISCONSIN

CITY           SKY/WX    TMP DP  RH WIND       PRES   REMARKS
MILWAUKEE      MOCLDY    63  59  87 N10       29.87R
KENOSHA*       MOCLDY    64  60  87 N9        29.87R
RACINE*        CLOUDY    63  60  90 N13       29.88R
BURLINGTON     PTCLDY    64  58  82 N9G16     29.87R
WEST BEND      PTCLDY    63  54  72 N9        29.89R
$$

INZ001>003-010>013-019-020-280300-
NORTHWEST INDIANA

CITY           SKY/WX    TMP DP  RH WIND       PRES   REMARKS
GARY*          MOCLDY    73  55  53 NW12G23   29.82R
MICHIGAN CITY* NOT AVBL
RENSSELAER*    NOT AVBL
VALPARAISO     MOCLDY    67  58  72 N10G17    29.83R
$$

LMZ740>746-280300-
SOUTHERN LAKE MICHIGAN

STATION/POSITION TIME  SKY/WX   TEMP WIND        PRES    VSBY
                                AIR  DIR/SP/G
                 (UTC)          (F)  (DEG/KT/KT) (MB)    (MI)
HARRISON CRIB    0200            67  340/ 27/ 33   N/A
BURNHAM HARBOR   0200            67  350/ 20/ 20   N/A
CALUMET HARBOR   0200            73  300/  8/ 14 1008.9R
BURNS HARBOR     0200            68  360/ 16/ 19 1010.2S
MICHIGAN CITY    0200            67  340/ 23/ 26   N/A
$$

ABBREVIATIONS USED IN REMARKS
   TC - TEMPERATURE IN CELSIUS
  WCI - WIND CHILL INDEX
   HX - HEAT INDEX
  VSB - VISIBILITY
$$


USA.gov is the U.S. government's official web portal to all federal, state and local government web resources and services.